[[{"header":{"parameterUnit":"m.s-1","parameterCategory":1,"la1":30.2991,"la2":30.254,"lo1":-89.0895,"lo2":-89.0444,"dy":0.0017,"dx":0.0017,"nx":28,"ny":28,"refTime":"2024-04-19T09:00:00:Z","depth":0,"parameterNumber":2,"parameterNumberName":"U-component_of_WINDS"},"data":[0,0,0,0,0,0,0,0,0,0,0,0,0,0,0,0,0,0,0,0,0,0,0,0,0,0,0,0,0,0,0,0,0,0,0,0,0,0,0,0,0,0,0,0,0,0,0,0,0,0,0,0,0,0,0,0,0,0,-0.4566,-0.4566,0,-0.4616,-0.4617,-0.4617,-0.4659,-0.466,-0.466,-0.466,-0.4711,-0.4712,-0.4713,0,0,0,0,0,0,0,0,0,0,0,0,0,-0.4506,-0.4507,-0.4566,-0.4566,-0.4567,-0.4616,-0.4617,-0.4617,-0.4659,-0.466,-0.466,-0.4661,-0.4711,-0.4712,-0.4713,0,0,0,0,0,0,0,0,0,0,0,0,0,-0.4542,-0.4507,-0.4566,-0.4594,-0.4597,-0.4616,-0.4617,-0.4617,-0.4659,-0.466,-0.466,-0.4661,-0.4711,-0.4712,-0.4714,-0.4709,0,0,-0.4718,-0.4718,0,0,0,0,0,0,0,0,-0.454,-0.4544,-0.4589,-0.4592,-0.4595,-0.4632,-0.4614,-0.4648,-0.4659,-0.4635,-0.4661,-0.4661,-0.4684,-0.4688,-0.4696,-0.4711,-0.4713,-0.4718,-0.4719,-0.4719,-0.472,0,0,0,0,0,0,0,-0.4537,-0.4542,-0.4586,-0.459,-0.4593,-0.4604,-0.461,-0.4621,-0.4655,-0.4637,-0.4641,-0.4646,-0.4686,-0.4695,-0.4697,-0.4714,-0.4718,-0.4719,-0.472,-0.4721,-0.4728,-0.4727,0,0,0,0,0,0,-0.453,-0.454,-0.4584,-0.4587,-0.4569,-0.4604,-0.4611,-0.4619,-0.4655,-0.4662,-0.4645,-0.4648,-0.4692,-0.4696,-0.4699,-0.4696,-0.4719,-0.4721,-0.4722,-0.4729,-0.4728,-0.4727,0,0,0,0,0,0,-0.4529,-0.4534,-0.4582,-0.4564,-0.4571,-0.4605,-0.4614,-0.462,-0.4628,-0.4661,-0.4668,-0.4647,-0.4692,-0.4697,-0.4706,-0.4699,-0.4721,-0.4723,-0.4729,-0.4728,-0.4728,-0.469,0,0,0,0,0,0,-0.4527,-0.4533,-0.4531,-0.4564,-0.4572,-0.4588,-0.4614,-0.4621,-0.4631,-0.4634,-0.4665,-0.4671,-0.4693,-0.4704,-0.4708,-0.4701,-0.4724,-0.473,-0.4729,-0.4728,-0.4692,-0.4688,-0.4684,0,0,0,0,0,-0.4525,-0.4519,-0.4531,-0.4536,-0.4571,-0.4587,-0.4592,-0.4618,-0.463,-0.4629,-0.465,-0.467,-0.4699,-0.4704,-0.4709,-0.4703,-0.4731,-0.4729,-0.4728,-0.4694,-0.4689,-0.4684,0,0,0,0,0,0,-0.4484,-0.4523,-0.4538,-0.4542,-0.4561,-0.4594,-0.4593,-0.4612,-0.4628,-0.463,-0.4662,-0.4669,-0.4674,-0.4689,-0.4695,-0.47,-0.4718,-0.4717,-0.469,-0.4685,-0.4682,-0.4678,-0.4725,0,0,0,0,0,-0.4476,-0.4486,-0.452,-0.452,-0.4529,-0.4559,-0.4568,-0.4586,-0.4607,-0.4615,-0.4637,-0.4657,-0.4671,-0.4679,-0.4693,-0.4694,-0.4702,-0.4692,-0.4689,-0.4685,-0.4684,-0.4687,-0.4683,-0.4722,-0.4722,-0.4722,0,0,-0.4458,-0.4481,-0.4486,-0.4513,-0.453,-0.4539,-0.4566,-0.4575,-0.4583,-0.4617,-0.4627,-0.4643,-0.4667,-0.4672,-0.4676,-0.4685,-0.4675,-0.4683,-0.468,-0.4681,-0.4685,-0.4681,-0.4677,-0.4721,-0.4722,-0.4722,0,0,-0.4432,-0.445,-0.4453,-0.4469,-0.4495,-0.4515,-0.4516,-0.4546,-0.4559,-0.4569,-0.4595,-0.4605,-0.4627,-0.4644,-0.4655,-0.4635,-0.4654,-0.4639,-0.4618,-0.462,-0.4617,-0.4614,-0.4608,-0.4605,-0.4638,-0.4638,-0.4638,0,-0.4407,-0.4423,-0.4452,-0.446,-0.4471,-0.4502,-0.4505,-0.452,-0.4549,-0.4556,-0.4566,-0.4596,-0.4614,-0.4624,-0.4619,-0.4627,-0.4629,-0.4635,-0.4615,-0.4613,-0.4611,-0.4605,-0.4602,-0.4636,-0.4636,-0.4636,-0.4636,0,-0.4392,-0.4402,-0.4402,-0.4429,-0.444,-0.4445,-0.4475,-0.4483,-0.45,-0.452,-0.453,-0.4553,-0.4573,-0.4577,-0.4594,-0.4589,-0.4594,-0.4609,-0.4627,-0.4605,-0.4599,-0.4597,-0.4633,-0.4633,-0.4634,-0.4635,0,0,-0.4341,-0.4384,-0.4383,-0.4396,-0.4427,-0.4436,-0.4443,-0.4462,-0.4469,-0.4487,-0.4494,-0.4513,-0.4528,-0.454,-0.456,-0.4561,-0.4545,-0.4577,-0.4578,-0.457,-0.4541,-0.4529,-0.4526,-0.4557,-0.4557,-0.4557,-0.4539,0,-0.432,-0.4334,-0.436,-0.4366,-0.4376,-0.4407,-0.4413,-0.4432,-0.4451,-0.4462,-0.4483,-0.4496,-0.4514,-0.4522,-0.4524,-0.4546,-0.4539,-0.4548,-0.4564,-0.4564,-0.4557,-0.4523,-0.4511,-0.4492,-0.4537,-0.4536,-0.4536,0,-0.4296,-0.4314,-0.4321,-0.4351,-0.4356,-0.4361,-0.4382,-0.4393,-0.4415,-0.4429,-0.4443,-0.4465,-0.4474,-0.449,-0.4503,-0.4509,-0.4517,-0.4529,-0.4529,-0.4531,-0.4549,-0.4525,-0.4487,-0.4484,-0.4533,-0.4533,-0.4534,0,-0.4259,-0.4284,-0.4292,-0.4302,-0.4337,-0.434,-0.4355,-0.4379,-0.4389,-0.4407,-0.4414,-0.4432,-0.4442,-0.4456,-0.4482,-0.4492,-0.4492,-0.4511,-0.4504,-0.4503,-0.4503,-0.4502,-0.4466,-0.4508,-0.4508,-0.4508,-0.4508,0,-0.4232,-0.4236,-0.4275,-0.428,-0.4284,-0.4315,-0.4318,-0.4336,-0.4357,-0.4366,-0.4393,-0.4401,-0.4434,-0.4446,-0.4466,-0.4474,-0.4479,-0.449,-0.4495,-0.4487,-0.4486,-0.4493,-0.4495,-0.4507,-0.4507,-0.4507,-0.4507,0,-0.4191,-0.4218,-0.4228,-0.4261,-0.4269,-0.4271,-0.43,-0.4305,-0.4326,-0.4336,-0.4341,-0.4372,-0.4387,-0.4415,-0.4438,-0.4451,-0.4455,-0.4464,-0.4447,-0.4451,-0.4442,-0.4442,-0.4409,-0.4406,-0.4449,-0.4449,-0.4449,0,-0.4173,-0.4176,-0.4209,-0.4217,-0.4231,-0.4243,-0.4254,-0.4284,-0.4294,-0.432,-0.4323,-0.434,-0.4356,-0.4379,-0.4404,-0.4421,-0.4431,-0.4418,-0.4434,-0.4426,-0.4431,-0.4431,-0.4432,-0.4415,-0.4414,-0.4414,-0.4413,0,-0.4137,-0.415,-0.4164,-0.4183,-0.4195,-0.4212,-0.423,-0.4235,-0.4269,-0.4279,-0.4295,-0.4307,-0.433,-0.4347,-0.4369,-0.4384,-0.4404,-0.4408,-0.4407,-0.44,-0.439,-0.4395,-0.4438,-0.4409,-0.4409,-0.4409,-0.441,-0.441,-0.4107,-0.4111,-0.4135,-0.415,-0.4167,-0.4183,-0.419,-0.4212,-0.4225,-0.4247,-0.4264,-0.4279,-0.4302,-0.4333,-0.4347,-0.4359,-0.4369,-0.4367,-0.4367,-0.4367,-0.4364,-0.4388,-0.4363,-0.4363,-0.4363,-0.4364,-0.4364,0,-0.4072,-0.409,-0.4103,-0.4128,-0.414,-0.4158,-0.4179,-0.4188,-0.42,-0.422,-0.4235,-0.4254,-0.427,-0.4297,-0.4316,-0.432,-0.433,-0.4324,-0.4324,-0.4327,-0.4354,-0.4353,-0.4316,-0.4316,-0.4316,-0.4316,-0.4316,-0.4316,-0.4056,-0.4065,-0.4081,-0.4098,-0.4115,-0.413,-0.414,-0.4155,-0.4172,-0.4191,-0.4205,-0.4222,-0.4245,-0.4266,-0.4282,-0.429,-0.4295,-0.4286,-0.4297,-0.4321,-0.4325,-0.433,-0.4329,-0.4287,-0.4287,-0.4269,-0.4269,-0.4269]},{"header":{"parameterUnit":"m.s-1","parameterCategory":1,"la1":30.2991,"la2":30.254,"lo1":-89.0895,"lo2":-89.0444,"dy":0.0017,"dx":0.0017,"nx":28,"ny":28,"refTime":"2024-04-19T09:00:00:Z","depth":0,"parameterNumber":3,"parameterNumberName":"V-component_of_WINDS"},"data":[0,0,0,0,0,0,0,0,0,0,0,0,0,0,0,0,0,0,0,0,0,0,0,0,0,0,0,0,0,0,0,0,0,0,0,0,0,0,0,0,0,0,0,0,0,0,0,0,0,0,0,0,0,0,0,0,0,0,1.3839,1.3839,0,1.3895,1.3895,1.3896,1.3885,1.3884,1.3883,1.3883,1.3937,1.3939,1.3941,0,0,0,0,0,0,0,0,0,0,0,0,0,1.372,1.3722,1.3839,1.3839,1.384,1.3894,1.3895,1.3896,1.3886,1.3884,1.3883,1.3882,1.3936,1.3939,1.3941,0,0,0,0,0,0,0,0,0,0,0,0,0,1.3773,1.3723,1.3838,1.3841,1.3842,1.3894,1.3895,1.3896,1.3886,1.3884,1.3883,1.3882,1.3935,1.3938,1.3942,1.3993,0,0,1.3953,1.3954,0,0,0,0,0,0,0,0,1.377,1.3778,1.384,1.3841,1.3842,1.3882,1.3873,1.3929,1.3886,1.3869,1.3883,1.3881,1.3919,1.3924,1.3938,1.3996,1.3998,1.3953,1.3955,1.3957,1.3958,0,0,0,0,0,0,0,1.3767,1.3775,1.3861,1.3841,1.3842,1.3839,1.3845,1.3884,1.3902,1.3871,1.387,1.3877,1.3919,1.3934,1.3939,1.3999,1.3953,1.3956,1.3958,1.396,1.4103,1.4104,0,0,0,0,0,0,1.3762,1.3772,1.3859,1.3862,1.3802,1.3842,1.3849,1.387,1.3901,1.3905,1.3878,1.3876,1.3929,1.3935,1.3941,1.4004,1.3957,1.396,1.3962,1.4101,1.4103,1.4105,0,0,0,0,0,0,1.376,1.377,1.3857,1.3817,1.3828,1.3846,1.387,1.3872,1.3887,1.3907,1.391,1.389,1.3928,1.3936,1.3981,1.4005,1.3961,1.3965,1.4099,1.4102,1.4104,1.413,0,0,0,0,0,0,1.3756,1.3769,1.379,1.3818,1.383,1.3897,1.3872,1.3874,1.3894,1.3892,1.3919,1.3922,1.3927,1.3975,1.3984,1.4009,1.3967,1.4097,1.41,1.4103,1.4127,1.4133,1.4138,0,0,0,0,0,1.3752,1.3794,1.3791,1.3801,1.3856,1.3898,1.3905,1.3911,1.3896,1.3916,1.3929,1.3921,1.4001,1.398,1.399,1.4017,1.4095,1.4099,1.4103,1.4124,1.4131,1.4138,0,0,0,0,0,0,1.3767,1.3797,1.3794,1.3846,1.387,1.3896,1.3922,1.3919,1.3946,1.3943,1.3948,1.3955,1.4001,1.4013,1.3989,1.4068,1.4046,1.4052,1.4059,1.4066,1.4071,1.4068,1.397,0,0,0,0,0,1.3776,1.3809,1.3833,1.3877,1.3889,1.3904,1.3922,1.3925,1.3949,1.3958,1.3974,1.3997,1.4027,1.4047,1.4076,1.4128,1.4134,1.4151,1.4157,1.4161,1.4166,1.4195,1.4204,1.4117,1.4117,1.4117,0,0,1.3796,1.3817,1.3836,1.388,1.3899,1.3932,1.3912,1.3947,1.3971,1.3963,1.4007,1.402,1.4046,1.4095,1.4117,1.4106,1.4192,1.4166,1.417,1.4172,1.42,1.4208,1.4216,1.412,1.4119,1.4119,0,0,1.3848,1.3867,1.3906,1.3925,1.3954,1.3964,1.3973,1.4,1.4009,1.4053,1.4048,1.4076,1.4128,1.4147,1.4163,1.4224,1.4218,1.4233,1.4262,1.4291,1.4297,1.4303,1.4325,1.4333,1.4238,1.4238,1.4238,0,1.3869,1.3919,1.3926,1.3963,1.3982,1.3978,1.4017,1.4034,1.4071,1.4084,1.4072,1.4137,1.4154,1.4208,1.4223,1.4236,1.4246,1.423,1.4296,1.4302,1.4308,1.4329,1.4337,1.424,1.4239,1.4239,1.4239,0,1.3943,1.3978,1.4006,1.4043,1.4065,1.4102,1.4114,1.4136,1.4137,1.4148,1.4193,1.4213,1.4247,1.4259,1.426,1.4313,1.4306,1.4295,1.4273,1.4318,1.4338,1.4346,1.4242,1.4241,1.4241,1.4241,0,0,1.4006,1.4047,1.4057,1.4074,1.4106,1.4133,1.417,1.4204,1.4222,1.4247,1.4278,1.4323,1.4313,1.4332,1.4334,1.4359,1.4406,1.4345,1.4346,1.4356,1.4467,1.4475,1.4485,1.4403,1.4404,1.4405,1.4465,0,1.4062,1.4129,1.4137,1.4196,1.4229,1.4225,1.4257,1.428,1.4291,1.4319,1.4331,1.4363,1.4347,1.4358,1.4383,1.4396,1.4429,1.4391,1.4431,1.4433,1.4426,1.4495,1.4504,1.4559,1.4473,1.4474,1.4475,0,1.4136,1.4165,1.4228,1.4257,1.427,1.43,1.4332,1.4359,1.4384,1.4391,1.4412,1.4412,1.4449,1.4425,1.4477,1.4452,1.4468,1.4477,1.4479,1.4484,1.4457,1.4502,1.4577,1.4585,1.4487,1.4486,1.4485,0,1.4177,1.4231,1.4276,1.4291,1.4325,1.4345,1.436,1.4384,1.4404,1.4432,1.4445,1.4476,1.4493,1.4516,1.4524,1.4506,1.4576,1.4553,1.4582,1.4582,1.4597,1.4596,1.4677,1.4607,1.4607,1.4607,1.4606,0,1.4239,1.4277,1.4295,1.4323,1.4367,1.4375,1.4417,1.4431,1.4452,1.4482,1.448,1.4508,1.4516,1.4545,1.4551,1.4594,1.4601,1.4607,1.4608,1.4607,1.4607,1.4619,1.4615,1.4609,1.4608,1.4608,1.4608,0,1.4291,1.4305,1.4354,1.4382,1.439,1.4421,1.4445,1.4471,1.4482,1.452,1.4529,1.4546,1.458,1.459,1.4631,1.4635,1.4685,1.4682,1.4677,1.4677,1.4706,1.4703,1.4797,1.481,1.4732,1.4732,1.4733,0,1.433,1.436,1.4393,1.4413,1.4429,1.4462,1.4483,1.4492,1.4514,1.4545,1.4568,1.4602,1.463,1.4685,1.47,1.4731,1.4729,1.476,1.4734,1.4732,1.473,1.4729,1.4732,1.4765,1.4766,1.4767,1.4767,0,1.4398,1.4404,1.4435,1.4468,1.4494,1.452,1.4546,1.4563,1.4575,1.4599,1.4635,1.4657,1.4699,1.4733,1.4765,1.4779,1.4775,1.4775,1.4784,1.4784,1.478,1.4783,1.4691,1.4773,1.4773,1.4772,1.4772,1.4772,1.4445,1.4472,1.45,1.4534,1.4555,1.4579,1.4606,1.4621,1.4651,1.4687,1.469,1.4729,1.4754,1.4796,1.4812,1.4842,1.4833,1.4845,1.4848,1.4851,1.4854,1.4775,1.4847,1.4847,1.4847,1.4847,1.4847,0,1.4514,1.4531,1.4563,1.46,1.4628,1.4623,1.4651,1.4674,1.4709,1.4733,1.4761,1.4802,1.4835,1.4853,1.4885,1.4906,1.4905,1.4914,1.4913,1.4916,1.486,1.485,1.4914,1.4914,1.4914,1.4914,1.4914,1.4914,1.4552,1.4598,1.4607,1.4663,1.468,1.4719,1.4736,1.4758,1.4777,1.4824,1.4852,1.4864,1.4885,1.492,1.495,1.4954,1.4966,1.4977,1.498,1.4927,1.492,1.4914,1.4904,1.4979,1.4979,1.5034,1.5035,1.5035]}]]